JST52K YSSY-YMML

Flight info

Callsign JST52K
Flight time 1h 12m
Altitude 36000
Route WOL H65 LEECE Q29 ML
Aircraft A320/M-SDE3FGHIRWY/LB1

Departure

Time 2026-05-04 12:46
Airport Sydney Kingsford Smith International Airport (YSSY)

Arrival

Time 2026-05-04 13:58
Airport Melbourne Airport (YMML)
Time Latitude Longitude Altitude Speed Heading
2026-05-04 12:07 -33.93524 151.17765 30 ft 0 kts 279°
2026-05-04 12:28 -33.93526 151.17778 30 ft 4 kts 280°
2026-05-04 12:29 -33.93530 151.17810 30 ft 4 kts 272°
2026-05-04 12:29 -33.93527 151.17836 30 ft 4 kts 210°
2026-05-04 12:29 -33.93528 151.17838 30 ft 4 kts 190°
2026-05-04 12:29 -33.93555 151.17832 30 ft 4 kts 190°
2026-05-04 12:30 -33.93581 151.17827 30 ft 4 kts 190°
2026-05-04 12:30 -33.93608 151.17821 30 ft 4 kts 190°
2026-05-04 12:30 -33.93613 151.17820 30 ft 0 kts 190°
2026-05-04 12:34 -33.93619 151.17819 30 ft 2 kts 190°
2026-05-04 12:34 -33.93642 151.17814 30 ft 5 kts 190°
2026-05-04 12:35 -33.93682 151.17802 30 ft 7 kts 197°
2026-05-04 12:35 -33.93741 151.17782 30 ft 10 kts 194°
2026-05-04 12:35 -33.93819 151.17761 30 ft 13 kts 182°
2026-05-04 12:35 -33.93911 151.17784 29 ft 15 kts 171°
2026-05-04 12:36 -33.94022 151.17809 29 ft 18 kts 169°
2026-05-04 12:36 -33.94152 151.17842 30 ft 20 kts 167°
2026-05-04 12:36 -33.94261 151.17871 30 ft 16 kts 168°
2026-05-04 12:36 -33.94360 151.17896 30 ft 7 kts 168°
2026-05-04 12:37 -33.94418 151.17909 30 ft 10 kts 172°
2026-05-04 12:37 -33.94489 151.17884 30 ft 12 kts 199°
2026-05-04 12:37 -33.94577 151.17895 30 ft 14 kts 169°
2026-05-04 12:37 -33.94677 151.17918 30 ft 15 kts 168°
2026-05-04 12:38 -33.94785 151.17944 30 ft 17 kts 168°
2026-05-04 12:38 -33.94910 151.17978 30 ft 20 kts 166°
2026-05-04 12:38 -33.95029 151.18011 30 ft 6 kts 169°
2026-05-04 12:38 -33.95078 151.18026 30 ft 8 kts 153°
2026-05-04 12:39 -33.95100 151.18095 30 ft 10 kts 87°
2026-05-04 12:39 -33.95085 151.18192 30 ft 13 kts 77°
2026-05-04 12:39 -33.95064 151.18308 30 ft 16 kts 78°
2026-05-04 12:39 -33.95043 151.18421 30 ft 13 kts 78°
2026-05-04 12:40 -33.95081 151.18516 30 ft 15 kts 145°
2026-05-04 12:40 -33.95139 151.18568 30 ft 16 kts 137°
2026-05-04 12:40 -33.95266 151.18696 30 ft 20 kts 153°
2026-05-04 12:40 -33.95407 151.18742 30 ft 22 kts 168°
2026-05-04 12:41 -33.95520 151.18772 30 ft 13 kts 168°
2026-05-04 12:41 -33.95573 151.18785 30 ft 12 kts 168°
2026-05-04 12:41 -33.95663 151.18809 30 ft 14 kts 165°
2026-05-04 12:41 -33.95769 151.18839 30 ft 17 kts 168°
2026-05-04 12:42 -33.95891 151.18870 30 ft 19 kts 168°
2026-05-04 12:42 -33.96032 151.18905 30 ft 22 kts 168°
2026-05-04 12:42 -33.96195 151.18946 30 ft 25 kts 168°
2026-05-04 12:42 -33.96371 151.18990 30 ft 27 kts 169°
2026-05-04 12:43 -33.96568 151.19036 30 ft 30 kts 165°
2026-05-04 12:43 -33.96731 151.19072 30 ft 15 kts 188°
2026-05-04 12:43 -33.96845 151.19069 30 ft 18 kts 169°
2026-05-04 12:43 -33.96974 151.19104 30 ft 20 kts 167°
2026-05-04 12:44 -33.97081 151.19132 30 ft 10 kts 167°
2026-05-04 12:44 -33.97124 151.19179 30 ft 10 kts 106°
2026-05-04 12:44 -33.97115 151.19267 29 ft 8 kts 78°
2026-05-04 12:44 -33.97101 151.19344 27 ft 7 kts 76°
2026-05-04 12:45 -33.97065 151.19371 28 ft 8 kts
2026-05-04 12:45 -33.96986 151.19352 24 ft 26 kts 347°
2026-05-04 12:45 -33.96550 151.19239 26 ft 98 kts 347°
2026-05-04 12:45 -33.95697 151.19017 32 ft 150 kts 350°
2026-05-04 12:46 -33.94686 151.18790 697 ft 140 kts 348°
2026-05-04 12:46 -33.93709 151.18879 1351 ft 145 kts 14°
2026-05-04 12:46 -33.92863 151.19535 1871 ft 159 kts 40°
2026-05-04 12:46 -33.92315 151.20838 2150 ft 192 kts 78°
2026-05-04 12:47 -33.92559 151.22469 2639 ft 206 kts 116°
2026-05-04 12:47 -33.93245 151.23999 3266 ft 209 kts 119°
2026-05-04 12:47 -33.93775 151.25630 3891 ft 212 kts 96°
2026-05-04 12:47 -33.93794 151.27416 4441 ft 219 kts 85°
2026-05-04 12:48 -33.93736 151.29347 4734 ft 244 kts 85°
2026-05-04 12:48 -33.93667 151.31485 5119 ft 269 kts 85°
2026-05-04 12:48 -33.93591 151.33846 5655 ft 289 kts 84°
2026-05-04 12:48 -33.93519 151.36291 6499 ft 296 kts 85°
2026-05-04 12:49 -33.93446 151.38781 7374 ft 299 kts 84°
2026-05-04 12:49 -33.93630 151.41303 8254 ft 308 kts 103°
2026-05-04 12:49 -33.94607 151.43628 9115 ft 316 kts 129°
2026-05-04 12:49 -33.96311 151.45306 9959 ft 322 kts 155°
2026-05-04 12:50 -33.98458 151.46008 10639 ft 325 kts 180°
2026-05-04 12:50 -34.00718 151.45579 10894 ft 336 kts 208°
2026-05-04 12:50 -34.02617 151.43970 11392 ft 335 kts 231°
2026-05-04 12:50 -34.04263 151.41954 12110 ft 339 kts 231°
2026-05-04 12:51 -34.05935 151.39916 12867 ft 343 kts 231°
2026-05-04 12:51 -34.07630 151.37864 13633 ft 346 kts 231°
2026-05-04 12:51 -34.09339 151.35803 14319 ft 350 kts 231°
2026-05-04 12:51 -34.11069 151.33712 14960 ft 353 kts 231°
2026-05-04 12:52 -34.12813 151.31597 15619 ft 357 kts 231°
2026-05-04 12:52 -34.14573 151.29461 16254 ft 361 kts 232°
2026-05-04 12:52 -34.16350 151.27304 16900 ft 365 kts 232°
2026-05-04 12:52 -34.18130 151.25145 17531 ft 368 kts 232°
2026-05-04 12:53 -34.19970 151.22913 18181 ft 372 kts 232°
2026-05-04 12:53 -34.21782 151.20714 18757 ft 376 kts 232°
2026-05-04 12:53 -34.23631 151.18466 19352 ft 378 kts 232°
2026-05-04 12:53 -34.25494 151.16198 19969 ft 381 kts 232°
2026-05-04 12:54 -34.27390 151.13888 20597 ft 383 kts 232°
2026-05-04 12:54 -34.29247 151.11623 21196 ft 386 kts 232°
2026-05-04 12:54 -34.31143 151.09309 21798 ft 388 kts 232°
2026-05-04 12:54 -34.33047 151.06984 22395 ft 391 kts 233°
2026-05-04 12:55 -34.34973 151.04632 22970 ft 394 kts 233°
2026-05-04 12:55 -34.36903 151.02271 23602 ft 396 kts 233°
2026-05-04 12:55 -34.38844 150.99896 24102 ft 398 kts 233°
2026-05-04 12:55 -34.40793 150.97511 24590 ft 400 kts 233°
2026-05-04 12:56 -34.42754 150.95108 25064 ft 402 kts 233°
2026-05-04 12:56 -34.44727 150.92689 25524 ft 404 kts 233°
2026-05-04 12:56 -34.46709 150.90258 25980 ft 407 kts 233°
2026-05-04 12:56 -34.48703 150.87812 26427 ft 409 kts 233°
2026-05-04 12:57 -34.50710 150.85348 26885 ft 412 kts 234°
2026-05-04 12:57 -34.52728 150.82866 27306 ft 414 kts 234°
2026-05-04 12:57 -34.54759 150.80370 27723 ft 416 kts 234°
2026-05-04 12:57 -34.56626 150.77728 28130 ft 410 kts 242°
2026-05-04 12:58 -34.58310 150.74925 28572 ft 412 kts 242°
2026-05-04 12:58 -34.60006 150.72111 29022 ft 413 kts 242°
2026-05-04 12:58 -34.61691 150.69320 29429 ft 416 kts 242°
2026-05-04 12:58 -34.63406 150.66477 29855 ft 418 kts 242°
2026-05-04 12:59 -34.65124 150.63618 30245 ft 420 kts 242°
2026-05-04 12:59 -34.66872 150.60704 30614 ft 422 kts 242°
2026-05-04 12:59 -34.68581 150.57860 30971 ft 424 kts 242°
2026-05-04 12:59 -34.70322 150.54967 31327 ft 425 kts 242°
2026-05-04 13:00 -34.72074 150.52060 31679 ft 427 kts 242°
2026-05-04 13:00 -34.73824 150.49156 32158 ft 425 kts 242°
2026-05-04 13:00 -34.75563 150.46269 32677 ft 422 kts 242°
2026-05-04 13:00 -34.77287 150.43396 33189 ft 420 kts 242°
2026-05-04 13:01 -34.79001 150.40528 33681 ft 418 kts 242°
2026-05-04 13:01 -34.80703 150.37675 34184 ft 415 kts 242°
2026-05-04 13:01 -34.82391 150.34848 34604 ft 414 kts 242°
2026-05-04 13:01 -34.84097 150.31993 34980 ft 414 kts 242°
2026-05-04 13:02 -34.85787 150.29160 35339 ft 413 kts 243°
2026-05-04 13:02 -34.87467 150.26341 35725 ft 412 kts 242°
2026-05-04 13:02 -34.89149 150.23511 36023 ft 412 kts 242°
2026-05-04 13:03 -34.92495 150.17880 36106 ft 407 kts 242°
2026-05-04 13:03 -34.95807 150.12296 36110 ft 406 kts 243°
2026-05-04 13:04 -34.99121 150.06697 36104 ft 407 kts 243°
2026-05-04 13:04 -35.02434 150.01099 36103 ft 407 kts 243°
2026-05-04 13:05 -35.05754 149.95484 36115 ft 407 kts 243°
2026-05-04 13:05 -35.09059 149.89882 36113 ft 407 kts 243°
2026-05-04 13:06 -35.12346 149.84285 36147 ft 408 kts 243°
2026-05-04 13:06 -35.15659 149.78654 36147 ft 408 kts 243°
2026-05-04 13:07 -35.18998 149.72985 36141 ft 408 kts 243°
2026-05-04 13:07 -35.22279 149.67383 36141 ft 408 kts 243°
2026-05-04 13:08 -35.25578 149.61728 36129 ft 408 kts 243°
2026-05-04 13:08 -35.28877 149.56082 36137 ft 407 kts 243°
2026-05-04 13:09 -35.32175 149.50437 36132 ft 407 kts 243°
2026-05-04 13:09 -35.35459 149.44789 36130 ft 408 kts 243°
2026-05-04 13:10 -35.38749 149.39136 36131 ft 408 kts 243°
2026-05-04 13:10 -35.42025 149.33498 36156 ft 408 kts 243°
2026-05-04 13:11 -35.45314 149.27822 36141 ft 408 kts 243°
2026-05-04 13:11 -35.48599 149.22142 36132 ft 408 kts 243°
2026-05-04 13:12 -35.51876 149.16454 36128 ft 408 kts 243°
2026-05-04 13:12 -35.55157 149.10763 36127 ft 408 kts 243°
2026-05-04 13:13 -35.58449 149.05062 36143 ft 408 kts 243°
2026-05-04 13:13 -35.61723 148.99366 36140 ft 408 kts 243°
2026-05-04 13:14 -35.65001 148.93656 36135 ft 409 kts 243°
2026-05-04 13:14 -35.68276 148.87940 36128 ft 409 kts 243°
2026-05-04 13:15 -35.71550 148.82200 36133 ft 410 kts 243°
2026-05-04 13:15 -35.74825 148.76476 36113 ft 409 kts 243°
2026-05-04 13:16 -35.78076 148.70780 36108 ft 409 kts 243°
2026-05-04 13:16 -35.81342 148.65038 36119 ft 409 kts 243°
2026-05-04 13:17 -35.84598 148.59292 36111 ft 409 kts 243°
2026-05-04 13:17 -35.87866 148.53529 36124 ft 409 kts 243°
2026-05-04 13:18 -35.91128 148.47769 36117 ft 410 kts 243°
2026-05-04 13:18 -35.94381 148.42002 36104 ft 410 kts 243°
2026-05-04 13:19 -35.97636 148.36213 36115 ft 410 kts 243°
2026-05-04 13:19 -36.00881 148.30417 36128 ft 411 kts 243°
2026-05-04 13:20 -36.04135 148.24600 36125 ft 411 kts 243°
2026-05-04 13:20 -36.07394 148.18778 36145 ft 412 kts 243°
2026-05-04 13:21 -36.10649 148.12948 36132 ft 412 kts 243°
2026-05-04 13:21 -36.13902 148.07109 36120 ft 412 kts 243°
2026-05-04 13:22 -36.17150 148.01313 36115 ft 412 kts 242°
2026-05-04 13:22 -36.20434 147.95440 36112 ft 412 kts 243°
2026-05-04 13:23 -36.23684 147.89599 36126 ft 411 kts 243°
2026-05-04 13:23 -36.26382 147.84752 36138 ft 411 kts 243°
2026-05-04 13:24 -36.29620 147.78924 36125 ft 410 kts 243°
2026-05-04 13:24 -36.33359 147.72164 36117 ft 409 kts 243°
2026-05-04 13:25 -36.37169 147.65259 36113 ft 409 kts 243°
2026-05-04 13:25 -36.40252 147.59666 36116 ft 409 kts 243°
2026-05-04 13:26 -36.43481 147.53782 36080 ft 417 kts 243°
2026-05-04 13:26 -36.46710 147.47928 36079 ft 408 kts 243°
2026-05-04 13:27 -36.49910 147.42106 36079 ft 407 kts 243°
2026-05-04 13:27 -36.53092 147.36285 36085 ft 406 kts 243°
2026-05-04 13:28 -36.56271 147.30455 36077 ft 407 kts 243°
2026-05-04 13:28 -36.59449 147.24619 36077 ft 408 kts 243°
2026-05-04 13:29 -36.62628 147.18776 36076 ft 408 kts 243°
2026-05-04 13:29 -36.65814 147.12919 36079 ft 408 kts 243°
2026-05-04 13:30 -36.68989 147.07055 36105 ft 409 kts 243°
2026-05-04 13:30 -36.72165 147.01184 36103 ft 409 kts 243°
2026-05-04 13:31 -36.75347 146.95307 36086 ft 409 kts 243°
2026-05-04 13:31 -36.78530 146.89418 36091 ft 409 kts 243°
2026-05-04 13:32 -36.81708 146.83515 35667 ft 408 kts 243°
2026-05-04 13:32 -36.83266 146.80625 35237 ft 405 kts 243°
2026-05-04 13:32 -36.84832 146.77717 34808 ft 402 kts 243°
2026-05-04 13:33 -36.86385 146.74828 34365 ft 399 kts 244°
2026-05-04 13:33 -36.87926 146.71953 33905 ft 397 kts 244°
2026-05-04 13:33 -36.89458 146.69095 33442 ft 394 kts 244°
2026-05-04 13:33 -36.90974 146.66265 33005 ft 390 kts 244°
2026-05-04 13:34 -36.92471 146.63464 32567 ft 386 kts 244°
2026-05-04 13:34 -36.93958 146.60679 32148 ft 383 kts 244°
2026-05-04 13:34 -36.95437 146.57913 31716 ft 381 kts 244°
2026-05-04 13:34 -36.96907 146.55172 31308 ft 378 kts 245°
2026-05-04 13:35 -36.98344 146.52485 30909 ft 376 kts 245°
2026-05-04 13:35 -37.01226 146.47079 30115 ft 372 kts 245°
2026-05-04 13:35 -37.02672 146.44356 29684 ft 369 kts 245°
2026-05-04 13:36 -37.04088 146.41692 29311 ft 366 kts 245°
2026-05-04 13:36 -37.05487 146.39050 28939 ft 363 kts 244°
2026-05-04 13:36 -37.06878 146.36424 28570 ft 362 kts 244°
2026-05-04 13:36 -37.08269 146.33798 28190 ft 360 kts 243°
2026-05-04 13:37 -37.09629 146.31232 27835 ft 357 kts 243°
2026-05-04 13:37 -37.10998 146.28651 27452 ft 355 kts 242°
2026-05-04 13:37 -37.12359 146.26084 27082 ft 352 kts 242°
2026-05-04 13:37 -37.13705 146.23540 26695 ft 350 kts 242°
2026-05-04 13:38 -37.15047 146.21002 26319 ft 348 kts 242°
2026-05-04 13:38 -37.16379 146.18484 25938 ft 346 kts 241°
2026-05-04 13:38 -37.17706 146.15974 25538 ft 344 kts 241°
2026-05-04 13:38 -37.19024 146.13475 25143 ft 342 kts 240°
2026-05-04 13:39 -37.20330 146.10996 24728 ft 341 kts 240°
2026-05-04 13:39 -37.21638 146.08511 24328 ft 340 kts 240°
2026-05-04 13:39 -37.22935 146.06044 23923 ft 338 kts 240°
2026-05-04 13:39 -37.24231 146.03576 23497 ft 337 kts 239°
2026-05-04 13:40 -37.25515 146.01127 23048 ft 334 kts 239°
2026-05-04 13:40 -37.26784 145.98704 22634 ft 331 kts 239°
2026-05-04 13:40 -37.28046 145.96299 22233 ft 328 kts 239°
2026-05-04 13:40 -37.29295 145.93919 21838 ft 325 kts 239°
2026-05-04 13:41 -37.30532 145.91562 21444 ft 322 kts 239°
2026-05-04 13:41 -37.31762 145.89220 21048 ft 320 kts 240°
2026-05-04 13:41 -37.32985 145.86893 20657 ft 317 kts 239°
2026-05-04 13:42 -37.35381 145.82328 19880 ft 313 kts 239°
2026-05-04 13:42 -37.36580 145.80043 19492 ft 312 kts 239°
2026-05-04 13:42 -37.37772 145.77769 19105 ft 311 kts 239°
2026-05-04 13:42 -37.38961 145.75500 18724 ft 309 kts 240°
2026-05-04 13:43 -37.40137 145.73248 18346 ft 308 kts 240°
2026-05-04 13:43 -37.41308 145.71001 17921 ft 306 kts 240°
2026-05-04 13:43 -37.42468 145.68775 17527 ft 303 kts 240°
2026-05-04 13:43 -37.43620 145.66569 17164 ft 300 kts 240°
2026-05-04 13:44 -37.44765 145.64378 16788 ft 298 kts 240°
2026-05-04 13:44 -37.45925 145.62226 16405 ft 296 kts 238°
2026-05-04 13:44 -37.47126 145.60134 16046 ft 294 kts 237°
2026-05-04 13:44 -37.48342 145.58069 15682 ft 293 kts 237°
2026-05-04 13:45 -37.49556 145.56016 15323 ft 291 kts 237°
2026-05-04 13:45 -37.50761 145.53972 14964 ft 290 kts 237°
2026-05-04 13:45 -37.51956 145.51934 14602 ft 289 kts 237°
2026-05-04 13:45 -37.53148 145.49892 14234 ft 288 kts 237°
2026-05-04 13:46 -37.54332 145.47860 13877 ft 287 kts 237°
2026-05-04 13:46 -37.55513 145.45830 13498 ft 286 kts 237°
2026-05-04 13:46 -37.56682 145.43813 13122 ft 284 kts 237°
2026-05-04 13:46 -37.57841 145.41812 12764 ft 282 kts 237°
2026-05-04 13:47 -37.58992 145.39822 12408 ft 279 kts 237°
2026-05-04 13:47 -37.60129 145.37857 12054 ft 277 kts 237°
2026-05-04 13:47 -37.61264 145.35895 11695 ft 275 kts 237°
2026-05-04 13:47 -37.62387 145.33955 11343 ft 273 kts 237°
2026-05-04 13:48 -37.63488 145.32047 11000 ft 271 kts 237°
2026-05-04 13:48 -37.64599 145.30119 10651 ft 270 kts 237°
2026-05-04 13:48 -37.65693 145.28218 10306 ft 269 kts 237°
2026-05-04 13:48 -37.66798 145.26299 9938 ft 269 kts 236°
2026-05-04 13:49 -37.67894 145.24398 9580 ft 268 kts 237°
2026-05-04 13:49 -37.68988 145.22494 9221 ft 266 kts 237°
2026-05-04 13:49 -37.70068 145.20611 8849 ft 265 kts 237°
2026-05-04 13:49 -37.71154 145.18721 8467 ft 264 kts 237°
2026-05-04 13:50 -37.72229 145.16853 8148 ft 261 kts 237°
2026-05-04 13:50 -37.73291 145.15003 7744 ft 259 kts 237°
2026-05-04 13:50 -37.74341 145.13175 7554 ft 252 kts 237°
2026-05-04 13:50 -37.75354 145.11416 7405 ft 241 kts 237°
2026-05-04 13:51 -37.76324 145.09732 6975 ft 235 kts 237°
2026-05-04 13:51 -37.77276 145.08075 6490 ft 232 kts 237°
2026-05-04 13:51 -37.78212 145.06438 6001 ft 228 kts 237°
2026-05-04 13:51 -37.79121 145.04849 5542 ft 223 kts 237°
2026-05-04 13:52 -37.80941 145.01635 4726 ft 221 kts 242°
2026-05-04 13:52 -37.81543 144.99884 4218 ft 214 kts 256°
2026-05-04 13:52 -37.81854 144.98081 3827 ft 207 kts 258°
2026-05-04 13:53 -37.82156 144.96350 3641 ft 191 kts 259°
2026-05-04 13:53 -37.82423 144.94846 3588 ft 171 kts 259°
2026-05-04 13:53 -37.82654 144.93395 3552 ft 162 kts 261°
2026-05-04 13:54 -37.82999 144.90588 3376 ft 161 kts 262°
2026-05-04 13:54 -37.83171 144.89168 3304 ft 161 kts 262°
2026-05-04 13:54 -37.82412 144.86707 3078 ft 180 kts 328°
2026-05-04 13:55 -37.81164 144.86347 2828 ft 186 kts 341°
2026-05-04 13:55 -37.78621 144.85907 2317 ft 183 kts 342°
2026-05-04 13:55 -37.77374 144.85697 2068 ft 175 kts 343°
2026-05-04 13:56 -37.76227 144.85509 1846 ft 158 kts 343°
2026-05-04 13:56 -37.75180 144.85332 1637 ft 144 kts 342°
2026-05-04 13:56 -37.73295 144.84996 1269 ft 132 kts 347°
2026-05-04 13:57 -37.72379 144.84825 1099 ft 134 kts 349°
2026-05-04 13:57 -37.71478 144.84658 934 ft 132 kts 348°
2026-05-04 13:58 -37.68732 144.84131 436 ft 133 kts 351°
2026-05-04 13:58 -37.67279 144.83852 376 ft 53 kts 350°
2026-05-04 13:58 -37.67055 144.83833 384 ft 21 kts
2026-05-04 13:59 -37.66920 144.83875 389 ft 14 kts 20°
2026-05-04 13:59 -37.66842 144.83911 391 ft 12 kts 20°
2026-05-04 13:59 -37.66724 144.84024 395 ft 12 kts 77°
2026-05-04 14:00 -37.66732 144.84132 392 ft 15 kts 131°
2026-05-04 14:00 -37.66981 144.84225 386 ft 24 kts 172°
2026-05-04 14:00 -37.67148 144.84257 383 ft 21 kts 172°
2026-05-04 14:01 -37.67303 144.84286 380 ft 23 kts 171°
2026-05-04 14:01 -37.67421 144.84308 377 ft 11 kts 171°
2026-05-04 14:01 -37.67472 144.84426 378 ft 9 kts 82°
2026-05-04 14:02 -37.67466 144.84493 378 ft 6 kts 93°
2026-05-04 14:02 -37.67497 144.84535 378 ft 9 kts 150°
2026-05-04 14:02 -37.67571 144.84555 376 ft 13 kts 171°
2026-05-04 14:02 -37.67662 144.84571 373 ft 9 kts 172°
2026-05-04 14:03 -37.67698 144.84578 372 ft 6 kts 171°
2026-05-04 14:03 -37.67741 144.84621 370 ft 10 kts 115°
2026-05-04 14:03 -37.67736 144.84705 371 ft 8 kts 81°
2026-05-04 14:03 -37.67730 144.84768 372 ft 7 kts 82°
2026-05-04 14:04 -37.67722 144.84841 373 ft 2 kts 82°
2026-05-04 14:04 -37.67717 144.84856 373 ft 2 kts 60°
2026-05-04 14:04 -37.67706 144.84863 373 ft 2 kts 17°
2026-05-04 14:05 -37.67685 144.84858 374 ft 1 kts 349°
2026-05-04 14:05 -37.67677 144.84856 375 ft 2 kts 349°
2026-05-04 14:05 -37.67660 144.84853 375 ft 1 kts 351°
2026-05-04 14:06 -37.67652 144.84851 376 ft 2 kts 351°
2026-05-04 14:06 -37.67637 144.84848 376 ft 3 kts 351°
2026-05-04 14:06 -37.67624 144.84846 377 ft 1 kts 351°
2026-05-04 14:06 -37.67619 144.84845 377 ft 1 kts 351°
2026-05-04 14:07 -37.67616 144.84844 377 ft 0 kts 351°